JFA22R LFTZ-LFLJ

Flight info

Callsign JFA22R
Flight time 0h 47m
Altitude 19500
Route IRMAR DCT KINES
Aircraft PC12/L-SDFGRWY/S

Departure

Time 2026-04-20 18:18
Airport La Môle Airport (LFTZ)

Arrival

Time 2026-04-20 19:05
Airport Courchevel Altiport (LFLJ)
Time Latitude Longitude Altitude Speed Heading
2026-04-20 18:09 43.20382 6.47603 67 ft 0 kts 150°
2026-04-20 18:16 43.20373 6.47610 67 ft 5 kts 155°
2026-04-20 18:16 43.20360 6.47586 67 ft 4 kts 242°
2026-04-20 18:16 43.20335 6.47528 67 ft 8 kts 236°
2026-04-20 18:16 43.20292 6.47531 67 ft 5 kts 103°
2026-04-20 18:17 43.20293 6.47547 67 ft 1 kts 72°
2026-04-20 18:17 43.20306 6.47582 67 ft 18 kts 56°
2026-04-20 18:17 43.20487 6.48063 66 ft 92 kts 53°
2026-04-20 18:17 43.20862 6.48921 325 ft 111 kts 55°
2026-04-20 18:18 43.21350 6.49868 608 ft 134 kts 34°
2026-04-20 18:18 43.22126 6.50580 1046 ft 142 kts 44°
2026-04-20 18:18 43.22477 6.51817 1553 ft 150 kts 88°
2026-04-20 18:18 43.22440 6.52303 1735 ft 152 kts 100°
2026-04-20 18:19 43.22321 6.52898 2021 ft 151 kts 106°
2026-04-20 18:19 43.22092 6.53764 2445 ft 151 kts 109°
2026-04-20 18:19 43.21809 6.55131 3003 ft 153 kts 96°
2026-04-20 18:19 43.21733 6.56522 3557 ft 153 kts 86°
2026-04-20 18:20 43.21829 6.57951 4124 ft 151 kts 63°
2026-04-20 18:20 43.22439 6.59033 4670 ft 144 kts 29°
2026-04-20 18:20 43.23302 6.59693 5214 ft 142 kts 14°
2026-04-20 18:20 43.23793 6.59952 5504 ft 141 kts 11°
2026-04-20 18:21 43.24169 6.60125 5721 ft 140 kts
2026-04-20 18:21 43.24417 6.60231 5869 ft 140 kts
2026-04-20 18:21 43.25337 6.60583 6386 ft 139 kts
2026-04-20 18:21 43.26278 6.60906 6889 ft 140 kts
2026-04-20 18:22 43.26546 6.60995 7033 ft 141 kts
2026-04-20 18:22 43.27500 6.61303 7497 ft 143 kts
2026-04-20 18:22 43.28475 6.61616 7973 ft 144 kts
2026-04-20 18:22 43.28677 6.61680 8072 ft 144 kts
2026-04-20 18:23 43.29657 6.61991 8551 ft 144 kts
2026-04-20 18:23 43.30624 6.62295 8995 ft 146 kts
2026-04-20 18:23 43.31616 6.62608 9456 ft 146 kts
2026-04-20 18:23 43.32590 6.62915 9894 ft 146 kts
2026-04-20 18:24 43.33590 6.63228 10311 ft 148 kts
2026-04-20 18:24 43.34590 6.63545 10752 ft 148 kts
2026-04-20 18:24 43.35584 6.63859 11179 ft 148 kts
2026-04-20 18:24 43.36598 6.64177 11584 ft 150 kts
2026-04-20 18:25 43.37612 6.64499 11996 ft 150 kts
2026-04-20 18:25 43.38628 6.64819 12401 ft 150 kts
2026-04-20 18:25 43.39644 6.65140 12777 ft 152 kts
2026-04-20 18:25 43.40671 6.65464 13156 ft 152 kts
2026-04-20 18:26 43.41705 6.65791 13529 ft 153 kts
2026-04-20 18:26 43.42746 6.66119 13896 ft 154 kts
2026-04-20 18:26 43.43787 6.66449 14245 ft 154 kts
2026-04-20 18:26 43.44828 6.66779 14584 ft 155 kts
2026-04-20 18:27 43.45892 6.67113 14910 ft 157 kts
2026-04-20 18:27 43.46951 6.67450 15246 ft 157 kts
2026-04-20 18:27 43.48026 6.67791 15576 ft 159 kts
2026-04-20 18:27 43.49101 6.68130 15884 ft 160 kts
2026-04-20 18:28 43.50176 6.68471 16197 ft 160 kts
2026-04-20 18:28 43.51273 6.68819 16510 ft 160 kts
2026-04-20 18:28 43.52351 6.69161 16817 ft 161 kts
2026-04-20 18:28 43.53440 6.69506 17114 ft 161 kts
2026-04-20 18:29 43.54544 6.69857 17400 ft 163 kts
2026-04-20 18:29 43.55647 6.70206 17670 ft 163 kts
2026-04-20 18:29 43.56762 6.70561 17958 ft 164 kts
2026-04-20 18:29 43.57885 6.70918 18224 ft 165 kts
2026-04-20 18:30 43.59000 6.71271 18486 ft 166 kts
2026-04-20 18:30 43.60137 6.71632 18760 ft 167 kts
2026-04-20 18:30 43.61270 6.71993 19026 ft 167 kts
2026-04-20 18:30 43.62394 6.72351 19277 ft 168 kts
2026-04-20 18:31 43.63554 6.72716 19410 ft 176 kts
2026-04-20 18:31 43.64793 6.73102 19428 ft 189 kts
2026-04-20 18:31 43.66047 6.73498 19429 ft 200 kts
2026-04-20 18:31 43.67438 6.73940 19426 ft 209 kts
2026-04-20 18:32 43.68891 6.74403 19431 ft 216 kts
2026-04-20 18:32 43.70381 6.74880 19432 ft 222 kts
2026-04-20 18:32 43.71890 6.75364 19436 ft 227 kts
2026-04-20 18:32 43.73449 6.75865 19441 ft 231 kts
2026-04-20 18:33 43.75023 6.76369 19443 ft 234 kts
2026-04-20 18:33 43.76623 6.76882 19443 ft 236 kts
2026-04-20 18:33 43.78236 6.77399 19445 ft 238 kts
2026-04-20 18:33 43.79846 6.77916 19442 ft 240 kts
2026-04-20 18:34 43.81482 6.78440 19440 ft 241 kts
2026-04-20 18:34 43.83138 6.78971 19438 ft 242 kts
2026-04-20 18:34 43.84766 6.79493 19438 ft 242 kts
2026-04-20 18:34 43.86419 6.80024 19435 ft 243 kts
2026-04-20 18:35 43.88070 6.80555 19432 ft 243 kts
2026-04-20 18:35 43.89714 6.81081 19430 ft 243 kts
2026-04-20 18:35 43.91354 6.81609 19431 ft 243 kts
2026-04-20 18:35 43.93001 6.82137 19432 ft 243 kts
2026-04-20 18:36 43.94651 6.82669 19431 ft 243 kts
2026-04-20 18:36 43.96310 6.83204 19430 ft 243 kts
2026-04-20 18:36 43.97954 6.83733 19429 ft 243 kts
2026-04-20 18:36 43.99598 6.84264 19428 ft 244 kts
2026-04-20 18:37 44.01252 6.84798 19435 ft 244 kts
2026-04-20 18:37 44.02900 6.85328 19434 ft 244 kts
2026-04-20 18:37 44.04548 6.85860 19435 ft 244 kts
2026-04-20 18:37 44.06195 6.86393 19440 ft 243 kts
2026-04-20 18:38 44.07864 6.86933 19449 ft 243 kts
2026-04-20 18:38 44.09490 6.87458 19457 ft 243 kts
2026-04-20 18:38 44.11142 6.87991 19469 ft 243 kts
2026-04-20 18:38 44.12783 6.88523 19481 ft 242 kts
2026-04-20 18:39 44.14433 6.88950 19495 ft 236 kts 354°
2026-04-20 18:39 44.16065 6.88861 19502 ft 233 kts 348°
2026-04-20 18:39 44.17688 6.88680 19506 ft 233 kts 347°
2026-04-20 18:39 44.19311 6.88493 19515 ft 233 kts 348°
2026-04-20 18:40 44.20914 6.88309 19521 ft 234 kts 348°
2026-04-20 18:40 44.22555 6.88125 19523 ft 234 kts 348°
2026-04-20 18:40 44.24166 6.87943 19522 ft 234 kts 348°
2026-04-20 18:40 44.25811 6.87758 19522 ft 234 kts 348°
2026-04-20 18:41 44.27433 6.87576 19521 ft 234 kts 348°
2026-04-20 18:41 44.29064 6.87394 19522 ft 234 kts 348°
2026-04-20 18:41 44.30693 6.87213 19519 ft 234 kts 348°
2026-04-20 18:41 44.32323 6.87030 19521 ft 234 kts 348°
2026-04-20 18:42 44.33943 6.86850 19517 ft 234 kts 348°
2026-04-20 18:42 44.35561 6.86667 19513 ft 234 kts 348°
2026-04-20 18:42 44.37199 6.86483 19511 ft 234 kts 348°
2026-04-20 18:42 44.38829 6.86301 19508 ft 235 kts 348°
2026-04-20 18:43 44.40484 6.86113 19506 ft 234 kts 347°
2026-04-20 18:43 44.42089 6.85934 19504 ft 234 kts 347°
2026-04-20 18:43 44.43719 6.85750 19504 ft 234 kts 348°
2026-04-20 18:43 44.45357 6.85565 19506 ft 234 kts 347°
2026-04-20 18:44 44.46990 6.85381 19505 ft 233 kts 348°
2026-04-20 18:44 44.48619 6.85197 19505 ft 234 kts 348°
2026-04-20 18:44 44.50228 6.85017 19504 ft 235 kts 347°
2026-04-20 18:44 44.51791 6.84840 19504 ft 235 kts 348°
2026-04-20 18:45 44.51840 6.84835 19504 ft 235 kts 348°
2026-04-20 18:45 44.52141 6.84800 19503 ft 235 kts 348°
2026-04-20 18:45 44.53771 6.84616 19502 ft 235 kts 348°
2026-04-20 18:45 44.55400 6.84433 19501 ft 235 kts 348°
2026-04-20 18:46 44.57054 6.84246 19501 ft 236 kts 348°
2026-04-20 18:46 44.58676 6.84063 19501 ft 236 kts 347°
2026-04-20 18:46 44.60269 6.83883 19500 ft 236 kts 348°
2026-04-20 18:46 44.61910 6.83697 19498 ft 236 kts 348°
2026-04-20 18:47 44.63448 6.83522 19497 ft 235 kts 347°
2026-04-20 18:47 44.65081 6.83336 19497 ft 235 kts 347°
2026-04-20 18:47 44.66732 6.83150 19498 ft 235 kts 347°
2026-04-20 18:47 44.68358 6.82965 19497 ft 235 kts 347°
2026-04-20 18:48 44.69982 6.82782 19496 ft 234 kts 348°
2026-04-20 18:48 44.71387 6.82622 19498 ft 234 kts 348°
2026-04-20 18:48 44.71924 6.82561 19499 ft 234 kts 347°
2026-04-20 18:48 44.73560 6.82375 19501 ft 234 kts 348°
2026-04-20 18:49 44.75185 6.82189 19498 ft 234 kts 347°
2026-04-20 18:49 44.76811 6.82004 19502 ft 234 kts 347°
2026-04-20 18:49 44.78364 6.81829 19504 ft 234 kts 347°
2026-04-20 18:49 44.80004 6.81640 19504 ft 234 kts 348°
2026-04-20 18:50 44.81631 6.81456 19505 ft 234 kts 347°
2026-04-20 18:50 44.83264 6.81270 19505 ft 235 kts 347°
2026-04-20 18:50 44.84883 6.81083 19505 ft 235 kts 347°
2026-04-20 18:50 44.86507 6.80899 19504 ft 235 kts 347°
2026-04-20 18:51 44.88154 6.80710 19504 ft 234 kts 348°
2026-04-20 18:51 44.89775 6.80525 19506 ft 234 kts 347°
2026-04-20 18:51 44.91404 6.80339 19503 ft 233 kts 347°
2026-04-20 18:51 44.93024 6.80155 19501 ft 233 kts 347°
2026-04-20 18:52 44.94636 6.79970 19502 ft 232 kts 347°
2026-04-20 18:52 44.96254 6.79784 19505 ft 232 kts 347°
2026-04-20 18:52 44.97883 6.79596 19506 ft 232 kts 347°
2026-04-20 18:52 44.99486 6.79414 19508 ft 232 kts 347°
2026-04-20 18:53 45.01089 6.79230 19508 ft 232 kts 347°
2026-04-20 18:53 45.02703 6.79045 19507 ft 232 kts 347°
2026-04-20 18:53 45.04311 6.78857 19506 ft 232 kts 347°
2026-04-20 18:53 45.05924 6.78673 19504 ft 232 kts 347°
2026-04-20 18:54 45.07533 6.78489 19505 ft 231 kts 347°
2026-04-20 18:54 45.09134 6.78303 19505 ft 231 kts 347°
2026-04-20 18:54 45.10745 6.78118 19507 ft 231 kts 347°
2026-04-20 18:54 45.12354 6.77932 19505 ft 231 kts 347°
2026-04-20 18:55 45.13956 6.77747 19508 ft 231 kts 347°
2026-04-20 18:55 45.15494 6.77569 19309 ft 237 kts 347°
2026-04-20 18:55 45.17160 6.77374 19119 ft 238 kts 348°
2026-04-20 18:55 45.18798 6.77187 18995 ft 238 kts 348°
2026-04-20 18:56 45.20374 6.77007 18873 ft 237 kts 348°
2026-04-20 18:56 45.22025 6.76816 18752 ft 237 kts 348°
2026-04-20 18:56 45.23657 6.76627 18627 ft 237 kts 347°
2026-04-20 18:56 45.25302 6.76437 18502 ft 236 kts 348°
2026-04-20 18:57 45.26942 6.76245 18384 ft 236 kts 348°
2026-04-20 18:57 45.28593 6.76055 18258 ft 236 kts 348°
2026-04-20 18:57 45.30163 6.75873 18140 ft 236 kts 348°
2026-04-20 18:57 45.31739 6.75690 18019 ft 235 kts 348°
2026-04-20 18:58 45.33173 6.74885 17917 ft 221 kts 317°
2026-04-20 18:58 45.34253 6.73325 17806 ft 220 kts 307°
2026-04-20 18:58 45.35197 6.71604 17683 ft 220 kts 305°
2026-04-20 18:58 45.36123 6.69850 17557 ft 220 kts 305°
2026-04-20 18:59 45.37001 6.68149 17221 ft 208 kts 304°
2026-04-20 18:59 45.37770 6.66405 16359 ft 218 kts 298°
2026-04-20 18:59 45.38439 6.64428 15478 ft 224 kts 295°
2026-04-20 18:59 45.39242 6.62576 14924 ft 216 kts 312°
2026-04-20 19:00 45.40231 6.61017 14294 ft 214 kts 308°
2026-04-20 19:00 45.41052 6.59243 13474 ft 221 kts 297°
2026-04-20 19:00 45.41593 6.57227 12606 ft 228 kts 274°
2026-04-20 19:00 45.40728 6.55351 11467 ft 255 kts 204°
2026-04-20 19:01 45.39191 6.55943 11300 ft 234 kts 129°
2026-04-20 19:01 45.38416 6.57870 11056 ft 219 kts 115°
2026-04-20 19:01 45.37827 6.59852 10595 ft 217 kts 110°
2026-04-20 19:01 45.37463 6.61882 10191 ft 209 kts 85°
2026-04-20 19:02 45.38253 6.63287 9791 ft 194 kts 11°
2026-04-20 19:02 45.39608 6.62911 8889 ft 208 kts 337°
2026-04-20 19:02 45.40872 6.62071 8706 ft 188 kts 332°
2026-04-20 19:02 45.41994 6.61274 8543 ft 172 kts 337°
2026-04-20 19:03 45.43073 6.60776 8278 ft 151 kts 345°
2026-04-20 19:03 45.43927 6.60555 8140 ft 121 kts
2026-04-20 19:03 45.44323 6.61465 7612 ft 127 kts 105°
2026-04-20 19:03 45.43967 6.62454 7422 ft 103 kts 119°
2026-04-20 19:04 45.43597 6.63318 7086 ft 103 kts 117°
2026-04-20 19:04 45.43173 6.64156 6778 ft 104 kts 124°
2026-04-20 19:04 45.42661 6.64856 6615 ft 99 kts 148°
2026-04-20 19:04 45.42016 6.65170 6545 ft 100 kts 168°
2026-04-20 19:05 45.41315 6.65126 6520 ft 102 kts 199°
2026-04-20 19:05 45.40671 6.64683 6528 ft 103 kts 214°
2026-04-20 19:05 45.40130 6.64041 6438 ft 95 kts 227°
2026-04-20 19:05 45.39751 6.63497 6514 ft 44 kts 232°
2026-04-20 19:06 45.39638 6.63336 6560 ft 2 kts 221°
2026-04-20 19:06 45.39628 6.63324 6560 ft 4 kts 220°
2026-04-20 19:06 45.39587 6.63323 6560 ft 8 kts 157°
2026-04-20 19:06 45.39582 6.63343 6560 ft 0 kts 53°